Вернуться в каталог

LEGION 1

АктивенНаукаSSO
NORAD 59625·PAYLOAD·🇺🇸 United States

Запущен May 2, 2024 с Vandenberg Space Force Base

Loading…

Ближайшие Пролёты (ближайшие 24 часа)

TLE

СвежийSource: Space-Track

Эпоха: Sep 14, 2026, 13:01 UTC

1 59625U 24081A   26257.54250786  .00002738  00000-0  14107-3 0  9997
2 59625  97.4953 334.4467 0010565  63.0306 297.2005 15.17192410131081

Отслеживайте LEGION 1 в реальном времени с AllMySat

Download on the App Store